Tracking 22459 objects as of 3-Mar-2021
HD Live streaming from Space Station
objects crossing your sky now

BREEZE-M DEB

Track BREEZE-M DEB now!
10-day predictions


NORAD ID: 34243
Int'l Code: 2006-006BJ
Perigee: 475.9 km
Apogee: 14,613.4 km
Inclination: 51.6 °
Period: 272.3 minutes
Semi major axis: 13915 km
RCS: 0.0318 m2 (small)
Launch date: February 28, 2006
Source: Commonwealth of Independent States (former USSR) (CIS)
Launch site: TYURATAM MISSILE AND SPACE COMPLEX (TTMTR)

Note: This is SATELLITE DEBRIS
aabbcc
Your satellite tracking list
Your tracking list is empty




NASA's NSSDC Master Catalog

Two Line Element Set (TLE):
1 34243U 06006BJ  21061.46377735  .00000117  00000-0  16775-3 0  9998
2 34243  51.6179  98.6048 5079739  87.2445 327.4136  5.28868532244454
Source of the keplerian elements: AFSPC